Location: Fort Worth, Tx
(32.7431°N, 97.3695°W)
Time: 04:59:15
(UTC-05:00)

Altair - Pass Details

Date: 09 October 2023
Orbit: 1501 x 1682 km, 47.2° (Epoch: 06 December)

Event Time Altitude Azimuth Distance (km) Brightness Sun altitude
Rises 07:12:12 0° 305° (NW) 4,838 - -17.0°
Exits shadow 07:14:44 - 309° (NW) 4,083 9.3 -16.4°
Reaches altitude 10° 07:15:27 10° 310° (NW) 3,873 9.2 -16.3°
Maximum altitude 07:25:08 52° 26° (NNE) 2,002 8.3 -14.2°
Drops below altitude 10° 07:34:57 10° 101° (E) 3,940 11.1 -12.2°
Sets 07:38:16 0° 106° (ESE) 4,926 11.8 -11.5°
